User: anonymous   Login
Location: Lincolnton
(35.4660°N, 81.2500°W)
Time: 15:38:00
(UTC-05:00)
Language:

Hubble Space Telescope - Orbit

View from above orbital plane
View from above orbital plane
View from above satellite
View from above satellite

Ground track
Ground track

The orbit data is extracted from the following two-line orbital elements,

1 20580U 90037B   17351.97275324 +.00000536 +00000-0 +21967-4 0  9993
2 20580 028.4687 232.9531 0002625 354.1781 137.2673 15.08946386317988
Epoch (UTC): 17 December 2017 23:20:45
Eccentricity: 0.0002625
inclination: 28.4687°
perigee height: 537 km
apogee height: 541 km
right ascension of ascending node: 232.9531°
argument of perigee: 354.1781°
revolutions per day: 15.08946386
mean anomaly at epoch: 137.2673°
orbit number at epoch: 31798

The dashed part of the orbit path shows where the satellite is in the earth's shadow,  

DLR